[Iaude] MPEC F19: 2024 FG [a=1.32,e=0.36,i=3.8,H=24.1]

mpec at cfa.harvard.edu mpec at cfa.harvard.edu
Mon Mar 18 23:48:00 EDT 2024


M.P.E.C. 2024-F19                                Issued 2024 March 19, 03:46 UT

     The Minor Planet Electronic Circulars contain information on unusual
         minor planets, routine data on comets and natural satellites,
         and occasional editorial announcements.  They are published
    on behalf of Division F of the International Astronomical Union by the
          Minor Planet Center, Smithsonian Astrophysical Observatory,
                          Cambridge, MA 02138, U.S.A.
			  
             Prepared using the Tamkin Foundation Computer Network

                              MPC at CFA.HARVARD.EDU
            URL https://www.minorplanetcenter.net/    ISSN 1523-6714

                                    2024 FG                                     


Observations:
     K24F00G  C2024 03 02.52568912 18 33.463-00 42 36.60         20.93GVEF019F51
     K24F00G  C2024 03 02.53805112 18 33.261-00 42 47.34         22.26GVEF019F51
     K24F00G  C2024 03 02.56280612 18 32.830-00 43 08.17         21.88GVEF019F51
     K24F00G* C2024 03 17.47296912 10 22.761-06 24 42.23         20.88wXEF019F51
     K24F00G  C2024 03 17.48678612 10 21.354-06 25 13.51         20.36wXEF019F51
     K24F00G  C2024 03 17.50057912 10 19.948-06 25 44.80         20.36wXEF019F51
     K24F00G  C2024 03 17.51442112 10 18.547-06 26 16.12         20.49wXEF019F51
     K24F00G  C2024 03 17.60019512 10 10.201-06 29 30.03         20.45GVEF019F51
     K24F00G  C2024 03 17.60101512 10 10.123-06 29 31.88         20.38GVEF019F51
     K24F00G  C2024 03 17.60347512 10 09.898-06 29 37.36         20.18GVEF019F51
     K24F00G  C2024 03 17.60429112 10 09.826-06 29 39.21         20.20GVEF019F51
     K24F00G 1C2024 03 17.90989 12 09 51.15 -06 42 00.7          20.3 VXEF019033
     K24F00G 1C2024 03 17.91058 12 09 51.09 -06 42 01.9          20.8 VXEF019033
     K24F00G |C2024 03 18.20073712 09 26.920-06 52 09.80         20.4 GVEF019807
     K24F00G |C2024 03 18.20293012 09 26.700-06 52 15.20         20.1 GVEF019807
     K24F00G |C2024 03 18.20513012 09 26.500-06 52 20.20         19.9 GVEF019807
     K24F00G KC2024 03 19.00512 12 08 18.11 -07 27 21.8          20.3 GVEF019204
     K24F00G KC2024 03 19.02436 12 08 15.98 -07 28 12.1                VEF019204

Observer details:
033 Karl Schwarzschild Observatory, Tautenburg.  Observers S. Melnikov, C.
    Hogner, F. Ludwig, M. Hartmann, B. Stecklum.  Measurer B. Stecklum.
    1.34-m f/3 Schmidt + CCD.
204 Schiaparelli Observatory.  Observer L. Buzzi.  0.84-m f/3.5 reflector +
    CMO.
807 Cerro Tololo Observatory, La Serena.  Observers T. Linder, R. Holmes.
    0.61-m f/6.8 Ritchey-Chretien + CCD.
F51 Pan-STARRS 1, Haleakala.  Observers J. Herman, T. Lowe, P. Minguez, A.
    Schultz, I. Smith.  Measurers K. Chambers, T. de Boer, J. Fairlamb, H.
    Gao, M. Huber, C.-C. Lin, E. Magnier, Y. Ramanjooloo, R. Wainscoat, R.
    Weryk.  1.8-m Ritchey-Chretien + CCD.

Orbital elements:
2024 FG                                                  Earth MOID = 0.0218 AU
Epoch 2024 Mar. 31.0 TT = JDT 2460400.5                 MPC                     
M 322.34150              (2000.0)            P               Q                  
n   0.64955983     Peri.  273.83091     -0.11316776     +0.99350390             
a   1.3204540      Node   349.64820     -0.88313121     -0.10609694             
e   0.3569621      Incl.    3.81660     -0.45527171     -0.04115145             
P   1.52           H   24.14          G   0.15           U   8                  
Residuals in seconds of arc
240302 F51  0.0   0.0     240317 F51  0.0   0.1-    240317 033  0.1-  0.6+
240302 F51  0.1+  0.2-    240317 F51  0.0   0.1-    240318 807  0.4-  0.1-
240302 F51  0.1-  0.1+    240317 F51  0.1-  0.1-    240318 807  0.2-  0.2-
240317 F51  0.1+  0.1-    240317 F51  0.0   0.0     240318 807  0.4+  0.2+
240317 F51  0.1+  0.0     240317 F51  0.0   0.0     240319 204  0.0   0.0
240317 F51  0.1+  0.1-    240317 033  0.1-  0.2+    240319 204  0.1-  0.0

Ephemeris:
2024 FG                  a,e,i = 1.32, 0.36, 4                   q = 0.8491
Date    TT    R. A. (2000) Decl.     Delta      r    Elong.  Phase     V
2024 02 18    12 15 06.0 +01 49 15   0.3387  1.2820   145.6    25.8    23.5
...
2024 03 04    12 18 27.0 -01 04 03   0.2185  1.1980   158.9    17.3    22.1
...
2024 03 12    12 15 29.2 -03 37 44   0.1625  1.1523   166.5    11.6    21.2
...
2024 03 18    12 09 42.7 -06 44 34   0.1242  1.1181   171.0     8.0    20.4
2024 03 19    12 08 19.0 -07 26 07   0.1180  1.1124   171.3     7.8    20.3
2024 03 20    12 06 45.3 -08 11 49   0.1120  1.1067   171.4     7.8    20.2
...
2024 03 26    11 52 08.7 -14 59 09   0.07764 1.0728   165.4    13.5    19.5
...
2024 04 03    10 43 58.9 -39 24 31   0.03998 1.0288   135.7    42.7    18.9
...
2024 04 18    01 31 46.5 -29 40 10   0.06869 0.9530    40.6   136.7    24.7

A. U. Tomatic                (C) Copyright 2024 MPC           M.P.E.C. 2024-F19





More information about the Iaude mailing list